Content
SEND FEEDBACK

Daily
Averages
Monthly
Summary
Netherlands

MAASTRICHT, NETHERLANDS


Home > Europe > Netherlands
Elevation: 380 feet     Latitude: 50 55N     Longitude: 005 47E

WEATHER
 
SELECT A DAY
Number of Records: 302,485;   Date Range: 7/1/96 - 8/27/14
 
SHARE

PRINT THIS DATA

[ ← Previous Day ]
WEATHER ALMANAC - JANUARY 21, 2013
[ Next Day → ]
[ °C ]   °F
Weather ElementAverageHighLow
Temperature31.2 °F34 °F (1:00 pm)28.4 °F (3:55 am)
Dewpoint27 °F29 °F (4:00 pm)23 °F (2:55 am)
Humidity83.9 %93 % (7:25 pm)65 % (1:00 pm)
Barometer29.45 in29.55 in (10:00 pm)29.36 in (12:55 am)
Wind Speed6.5 mph13.8 mph (1:55 am)
Weather ElementAverage
Visibility4.9 mi
Wind DirectionESE (124.9 °)

Weather ElementTotal
Precipitation---
Heating Degree Days33.8 (Base 65)
Averaged from 55 records on January 21, 2013
WEATHER CONDITIONS BREAKOUT
WIND DIRECTION BREAKOUT
WEATHER BY HOUR - JANUARY 21, 2013
[ °C ]   °F
Local TimeTemperatureDewpointHumidityBarometerVisibilityWind DirectionWind SpeedGust SpeedPrecipitationEventsConditions
12:55 AM32.0 °F26.6 °F80 %29.36 in6.2 miWSW (240°)8.1 mphOvercast
1:00 AM31.0 °F27.0 °F80 %29.41 in6.0 miWSW (240°)6.7 mphPartly Cloudy
1:25 AM30.2 °F26.6 °F86 %29.39 in4.3 miSW (230°)11.5 mphOvercast
1:55 AM30.2 °F24.8 °F80 %29.39 in4.3 miSW (220°)13.8 mphOvercast
2:25 AM30.2 °F24.8 °F80 %29.39 in5.0 miSW (220°)12.7 mph
2:55 AM30.2 °F23.0 °F75 %29.39 in4.3 miSSW (200°)11.5 mphMostly Cloudy
3:25 AM30.2 °F24.8 °F80 %29.42 in4.3 miSSW (200°)10.4 mphOvercast
3:55 AM28.4 °F24.8 °F86 %29.39 in3.7 miSSW (200°)6.9 mphScattered Clouds
4:00 AM29.0 °F25.0 °F78 %29.44 in3.0 miSSW (200°)8.9 mphRainDrizzle
4:25 AM28.4 °F24.8 °F86 %29.42 in3.7 miSouth (190°)6.9 mphOvercast
4:55 AM28.4 °F24.8 °F86 %29.42 in3.7 miSouth (170°)6.9 mphSnowLight Snow
5:25 AM30.2 °F24.8 °F80 %29.42 in4.3 miSouth (180°)6.9 mphOvercast
5:55 AM30.2 °F24.8 °F80 %29.42 in5.0 miSSW (200°)8.1 mphOvercast
6:25 AM30.2 °F26.6 °F86 %29.42 in5.0 miSouth (190°)8.1 mphOvercast
6:55 AM30.2 °F26.6 °F86 %29.42 in5.6 miSouth (190°)6.9 mphOvercast
7:00 AM30.0 °F26.0 °F79 %29.45 in6.0 miSouth (190°)8.9 mphMist
7:25 AM30.2 °F26.6 °F86 %29.42 in6.2 miSouth (190°)8.1 mphOvercast
7:55 AM30.2 °F26.6 °F86 %29.42 in6.2 miSouth (190°)10.4 mphOvercast
8:25 AM30.2 °F26.6 °F86 %29.42 in5.0 miSouth (170°)6.9 mphOvercast
8:55 AM30.2 °F26.6 °F86 %29.44 in5.6 miSouth (180°)6.9 mphOvercast
9:25 AM32.0 °F26.6 °F80 %29.44 in5.6 miSSE (150°)5.8 mphOvercast
9:55 AM32.0 °F26.6 °F80 %29.44 in5.6 miESE (120°)5.8 mphOvercast
10:00 AM31.0 °F27.0 °F78 %29.47 in6.0 miSE (130°)6.7 mphOvercast
10:25 AM32.0 °F26.6 °F80 %29.44 in5.6 miESE (120°)5.8 mphOvercast
10:55 AM32.0 °F26.6 °F80 %29.44 in6.2 miESE (120°)5.8 mphOvercast
11:25 AM32.0 °F26.6 °F80 %29.44 in6.2 miESE (110°)4.6 mphOvercast
11:55 AM32.0 °F26.6 °F80 %29.44 in6.2 miESE (120°)5.8 mphOvercast
12:25 PM33.8 °F26.6 °F75 %29.44 in6.2 miSSE (150°)3.5 mphOvercast
12:55 PM33.8 °F26.6 °F75 %29.44 in6.2 miSSE (160°)2.3 mphOvercast
1:00 PM34.0 °F27.0 °F65 %29.47 in8.0 miSSE (160°)2.2 mphPartly Cloudy
1:25 PM33.8 °F26.6 °F75 %29.44 in6.2 miEast (90°)3.5 mphOvercast
1:55 PM33.8 °F28.4 °F81 %29.44 in6.2 miEast (100°)2.3 mphOvercast
2:25 PM33.8 °F28.4 °F81 %29.44 in6.2 miEast (100°)3.5 mphOvercast
2:55 PM33.8 °F28.4 °F81 %29.44 in6.2 miEast (80°)3.5 mphOvercast
3:25 PM33.8 °F28.4 °F81 %29.44 in4.3 miNE (50°)4.6 mphOvercast
3:55 PM32.0 °F28.4 °F87 %29.44 in4.3 miENE (60°)5.8 mphOvercast
4:00 PM33.0 °F29.0 °F79 %29.48 in4.0 miNE (50°)4.5 mphMist
4:25 PM32.0 °F28.4 °F87 %29.44 in4.3 miENE (60°)5.8 mphOvercast
4:55 PM32.0 °F28.4 °F87 %29.44 in4.3 miENE (70°)4.6 mphOvercast
5:25 PM32.0 °F28.4 °F87 %29.47 in4.3 miVariable4.6 mphOvercast
5:55 PM32.0 °F28.4 °F87 %29.47 in4.3 miENE (60°)6.9 mphOvercast
6:25 PM32.0 °F28.4 °F87 %29.47 in3.7 miENE (60°)5.8 mphOvercast
6:55 PM32.0 °F28.4 °F87 %29.47 in4.3 miENE (60°)5.8 mphOvercast
7:00 PM31.0 °F28.0 °F84 %29.51 in4.0 miENE (60°)4.5 mphMist
7:25 PM30.2 °F28.4 °F93 %29.47 in3.7 miENE (70°)5.8 mphOvercast
7:55 PM30.2 °F28.4 °F93 %29.47 in4.3 miENE (70°)5.8 mphOvercast
8:25 PM30.2 °F28.4 °F93 %29.50 in3.7 miENE (70°)6.9 mphOvercast
8:55 PM30.2 °F28.4 °F93 %29.50 in3.1 miENE (60°)5.8 mphOvercast
9:25 PM30.2 °F28.4 °F93 %29.50 inENE (60°)5.8 mphOvercast
9:55 PM30.2 °F28.4 °F93 %29.50 inENE (60°)5.8 mphOvercast
10:00 PM30.0 °F28.0 °F91 %29.55 in3.0 miENE (60°)6.7 mphMist
10:25 PM30.2 °F28.4 °F93 %29.53 inENE (60°)5.8 mphOvercast
10:55 PM30.2 °F28.4 °F93 %29.53 inNE (50°)5.8 mphOvercast
11:25 PM30.2 °F28.4 °F93 %29.53 in2.5 miNE (40°)5.8 mphOvercast
11:55 PM30.2 °F28.4 °F93 %29.53 in2.2 miNE (40°)6.9 mphOvercast
Hourly data recorded from EHBK, located miles away from Maastricht, Netherlands







STORIES FROM OUR PARTNERS